TimeCDT,TemperatureF,Dew PointF,Humidity,Sea Level PressureIn,VisibilityMPH,Wind Direction,Wind SpeedMPH,Gust SpeedMPH,PrecipitationIn,Events,Conditions,WindDirDegrees,DateUTC
12:58 AM,49.1,40.3,72,29.98,10.0,WNW,5.8,-,N/A,,Clear,290,2013-05-06 05:58:00
1:58 AM,48.4,41.2,76,29.96,10.0,West,4.6,-,N/A,,Clear,280,2013-05-06 06:58:00
2:58 AM,47.8,41.7,79,29.96,10.0,West,5.8,-,N/A,,Clear,280,2013-05-06 07:58:00
3:58 AM,47.1,41.9,82,29.97,10.0,West,6.9,-,N/A,,Clear,270,2013-05-06 08:58:00
4:58 AM,46.8,41.9,83,29.98,10.0,West,5.8,-,N/A,,Clear,260,2013-05-06 09:58:00
5:58 AM,46.2,41.9,85,29.98,10.0,West,3.5,-,N/A,,Clear,260,2013-05-06 10:58:00
6:58 AM,48.6,42.6,80,30.00,10.0,West,5.8,-,N/A,,Clear,260,2013-05-06 11:58:00
7:56 AM,54.1,43.0,66,30.02,10.0,West,9.2,-,N/A,,Partly Cloudy,260,2013-05-06 12:56:00
8:55 AM,59.7,41.9,52,30.02,10.0,West,6.9,20.7,N/A,,Partly Cloudy,260,2013-05-06 13:55:00
9:55 AM,62.4,41.7,47,30.01,10.0,West,10.4,-,N/A,,Mostly Cloudy,280,2013-05-06 14:55:00
10:55 AM,65.1,42.1,43,30.01,10.0,West,8.1,17.3,N/A,,Mostly Cloudy,260,2013-05-06 15:55:00
11:10 AM,66.2,42.8,43,30.00,10.0,WSW,15.0,18.4,N/A,,Scattered Clouds,250,2013-05-06 16:10:00
11:55 AM,66.2,42.8,43,30.00,10.0,West,12.7,-,N/A,,Mostly Cloudy,280,2013-05-06 16:55:00
12:33 PM,66.2,42.8,43,29.98,10.0,West,17.3,25.3,N/A,,Mostly Cloudy,270,2013-05-06 17:33:00
12:55 PM,67.1,43.5,42,29.97,10.0,West,12.7,17.3,N/A,,Overcast,270,2013-05-06 17:55:00
1:55 PM,68.0,43.9,42,29.97,10.0,West,12.7,19.6,N/A,,Overcast,280,2013-05-06 18:55:00
1:58 PM,68.0,43.9,42,29.97,10.0,West,8.1,19.6,N/A,,Mostly Cloudy,260,2013-05-06 18:58:00
2:55 PM,68.4,44.4,42,29.95,10.0,West,11.5,-,N/A,,Overcast,270,2013-05-06 19:55:00
3:55 PM,68.0,45.7,45,29.93,10.0,West,5.8,-,N/A,,Overcast,270,2013-05-06 20:55:00
4:55 PM,67.1,50.2,55,29.93,10.0,WSW,11.5,-,N/A,,Mostly Cloudy,240,2013-05-06 21:55:00
5:55 PM,66.0,49.1,54,29.93,10.0,WSW,11.5,-,N/A,,Mostly Cloudy,250,2013-05-06 22:55:00
6:55 PM,64.9,49.6,58,29.94,10.0,WSW,9.2,-,N/A,,Mostly Cloudy,240,2013-05-06 23:55:00
7:38 PM,64.4,50.0,59,29.95,10.0,WSW,4.6,-,N/A,Rain,Light Rain,250,2013-05-07 00:38:00
7:52 PM,64.4,50.0,59,29.95,10.0,WNW,2.3,-,N/A,,Overcast,300,2013-05-07 00:52:00
7:55 PM,63.5,52.0,66,29.96,10.0,Calm,Calm,-,0.00,,Overcast,0,2013-05-07 00:55:00
8:55 PM,62.6,51.8,68,29.98,10.0,WNW,6.9,-,N/A,,Overcast,290,2013-05-07 01:55:00
9:02 PM,62.6,51.8,68,29.97,10.0,West,5.8,-,N/A,Rain,Light Rain,280,2013-05-07 02:02:00
9:55 PM,60.8,52.5,74,29.97,10.0,WSW,3.5,-,0.00,,Mostly Cloudy,250,2013-05-07 02:55:00
10:55 PM,59.7,52.3,77,29.97,10.0,Calm,Calm,-,N/A,,Partly Cloudy,0,2013-05-07 03:55:00
11:55 PM,57.7,52.0,81,29.96,10.0,WSW,3.5,-,N/A,,Partly Cloudy,250,2013-05-07 04:55:00